weather.gov     
National Weather Service

Regional Weather Roundup
NWS Homepage
This page is being discontinued on March 12, 2014.
The same data is available at this site. Please update your bookmarks.
Thank you, and we apologize for the inconvenience.
Please send an email to SR-SRH.Webmaster@noaa.gov with any concerns.


Current Version
Previous Version:    01  02  03  04  05  06  07  08  09  10  11  12  13  14  15  16  17  18  19  20  21  22  23  24  25  26  
[Printable]
351
ASUS42 KTBW 251110
RWRFL
FLORIDA REGIONAL WEATHER ROUNDUP
NATIONAL WEATHER SERVICE TAMPA BAY RUSKIN FL
700 AM EDT SAT OCT 25 2014

NOTE: "FAIR" INDICATES FEW OR NO CLOUDS BELOW 12,000 FEET WITH NO
SIGNIFICANT WEATHER AND/OR OBSTRUCTIONS TO VISIBILITY.


FLZ001>010-012>015-112-114-115-251200-
PANHANDLE FLORIDA

CITY           SKY/WX    TMP DP  RH WIND       PRES   REMARKS
PENSACOLA      CLEAR     54  45  71 N8        30.06R
PENSACOLA NAS  CLEAR     50  47  89 N6        30.06R
MILTON NAS     CLEAR     49  43  80 NW5       30.07R
CRESTVIEW      CLEAR     44  42  93 N3        30.07R
DUKE FIELD     FAIR      41  40  95 CALM      30.06R
VALPARAISO     CLEAR     52  43  72 NW5       30.05R
MARY ESTHER    CLEAR     49  41  74 N9        30.04R WCI  45
PANAMA CITY    FAIR      50  45  83 NW5       30.03R
TYNDALL AFB    CLEAR     55  48  77 N6        30.04R
APALACHICOLA   CLEAR     51  46  83 NW3       30.02R

STATION/POSITION SKY/WX   TEMP    WIND        PRES    WAVE   SWELL
                          AIR SEA DIR/SP/G            HT/PER HT/PER
                          (F)     (DEG/KT/KT) (MB)    (FT/S) (FT/S)
30.1N   87.6W              67 77   20/ 12/ 14 1017.5R   2/ 3
29.2N   88.2W              72 78   20/ 16/ 19 1018.4R   3/ 5
28.8N   86.0W              74 79  360/ 12/ 16 1016.2R   2/ 4
PANAMA CITY BEAC           56 75  360/  7/ 10 1017.0R
CAPE SAN BLAS    NOT AVBL
TOWER C                    68     360/ 11/ 12 1016.0R
28.5N   84.5W              72 80   20/  6/  8 1015.9R   1/ 3

$$
FLZ011-016>038-118-127-128-134-139-239-251200-
NORTH FLORIDA

CITY           SKY/WX    TMP DP  RH WIND       PRES   REMARKS
MARIANNA       LGT RAIN  48  46  93 CALM      30.03R
TALLAHASSEE    CLEAR     45  40  82 CALM      30.01R
PERRY          CLEAR     45  45 100 CALM      30.02R FOG
CROSS CITY       N/A     45  42  89 CALM      30.00R
LAKE CITY      FAIR      45  45 100 CALM      30.01R FOG
GAINESVILLE    CLEAR     48  47  96 W3        30.00R
MAYPORT NAS    CLEAR     58  53  84 VRB3      29.99R
JACKSONVILLE   CLEAR     50  49  96 NW3       29.99S
JAX NAS        CLEAR     60  52  74 NW5       30.00R
JAX CRAIG      CLEAR     53  51  93 NW3       29.99S
JAX CECIL      CLEAR     45  43  93 CALM      30.00S
FERNANDINA BEA FAIR      55  54  94 NW3       29.98S
ST AUGUSTINE   CLEAR     57  53  86 NW6       29.99R

STATION/POSITION SKY/WX   TEMP    WIND        PRES    WAVE   SWELL
                          AIR SEA DIR/SP/G            HT/PER HT/PER
                          (F)     (DEG/KT/KT) (MB)    (FT/S) (FT/S)
SHELL POINT                56     360/  6/  8   N/A
KEATON BEACH               54      50/  3/  4 1016.3R
CEDAR KEY                  58     350/  3/  4 1016.1R
FERNANDINA                 59 72  360/  3/  3   N/A
30.7N   81.3W                 75                N/A     2/11
MAYPORT                    58 74  310/  7/  9   N/A
31.4N   80.9W              69 74  350/ 10/ 12 1015.4R   2/10   2/10
ST AUGUSTINE               60     310/  9/ 10 1015.8R

$$
FLZ040-043>046-052-053-057-058-063-144-251200-
INTERIOR CENTRAL FLORIDA

CITY           SKY/WX    TMP DP  RH WIND       PRES   REMARKS
OCALA          CLEAR     46  45  93 CALM      29.99S
THE VILLAGES     N/A     55  52  88 CALM      29.90R
LEESBURG       PTCLDY    57  52  83 N3        30.00R
SANFORD        PTCLDY    63  53  70 N8        29.97R
ORLANDO EXEC   PTCLDY    64  53  67 N7        29.98R
ORLANDO INTL   PTCLDY    64  53  67 N9        29.98R
KISSIMMEE      PTCLDY    61  55  82 MISG      29.98
WINTER HAVEN   CLEAR     62  58  86 N9        29.99R
LAKELAND       CLEAR     57  55  94 N5        29.99R
BARTOW         FAIR      63  55  77 N8        29.99R
OKEECHOBEE       N/A    N/A N/A N/A MISG        N/A

$$
FLZ041-047-054-059-064-141-147-251200-
EAST CENTRAL FLORIDA

CITY           SKY/WX    TMP DP  RH WIND       PRES   REMARKS
ORMOND BEACH   CLEAR     57  52  82 NW3       29.97
DAYTONA BEACH  PTCLDY    59  52  77 NW6       29.98R
DELAND         SUNNY     57  52  82 CALM      29.99R
NEW SMYRNA BEA PTCLDY    63  54  72 NW7       29.97
JFK SPACE CTR  CLEAR     64  57  79 NW8       29.95R
TITUSVILLE     CLEAR     63  54  72 NW9       29.96
CAPE CANAVERAL CLEAR     65  59  81 NW12      29.94R
PATRICK AFB    PTCLDY    67  60  77 NW16      29.94R
MELBOURNE      PTCLDY    64  58  80 NW8       29.94R
VERO BEACH     PTCLDY    62  59  90 NW9       29.93R
FT PIERCE      CLEAR     63  59  87 NW7       29.92R
STUART         PTCLDY    64  61  88 NW7       29.91S

STATION/POSITION SKY/WX   TEMP    WIND        PRES    WAVE   SWELL
                          AIR SEA DIR/SP/G            HT/PER HT/PER
                          (F)     (DEG/KT/KT) (MB)    (FT/S) (FT/S)
28.5N   80.2W              76 80  360/ 10/ 12 1013.2R
28.9N   78.5W              76 82   30/ 10/ 14 1012.8S   3/11   2/11
TRIDENT PIER               67 79  320/  8/ 12 1013.4R
28.4N   80.5W                 78                N/A     2/11
27.6N   80.2W                 79                N/A     4/ 6   2/11

$$
FLZ050-056-061-142-242-148-248-149-249-151-251-155-255-
160-260-251200-
WEST CENTRAL FLORIDA

CITY           SKY/WX    TMP DP  RH WIND       PRES   REMARKS
CRYSTAL RIVER  FAIR      48  46  93 CALM      30.00R
INVERNESS      FAIR      50  50 100 CALM      30.00R FOG
BROOKSVILLE    CLEAR     49  47  93 CALM      30.00R
ZEPHYRHILLS    FAIR      52  50  93 N3        30.00R
CLEARWATER     CLEAR     67  55  65 N10       29.98R
TAMPA INTL     CLEAR     62  52  69 N5        29.99R
PLANT CITY     CLEAR     59 N/A N/A N3        30.00R
MACDILL AFB    CLEAR     56  54  91 NE3       29.98R
ST PETERSBURG  CLEAR     68  56  65 N9        29.96S
SARASOTA       CLEAR     63  54  72 N6        29.96R
VENICE           N/A     63  55  77 MISG      29.98R

STATION/POSITION SKY/WX   TEMP    WIND        PRES    WAVE   SWELL
                          AIR SEA DIR/SP/G            HT/PER HT/PER
                          (F)     (DEG/KT/KT) (MB)    (FT/S) (FT/S)
CEDAR KEY                  58     350/  3/  4 1016.1R
28.5N   84.5W              72 80   20/  6/  8 1015.9R   1/ 3
27.3N   84.3W                 81                N/A     3/ 4
CLEARWATER BEACH NOT AVBL
MIDDLE TAMPA BAY           69      40/ 11/ 14 1015.4R
VENICE                     65 78   20/ 10/ 11 1014.5R

$$
FLZ066-069-070-075>078-162-262-165-265-251200-
SOUTHWEST FLORIDA AND KEYS

CITY           SKY/WX    TMP DP  RH WIND       PRES   REMARKS
PUNTA GORDA    CLEAR     63  57  81 N9        29.98R
FT MYERS       CLEAR     64  57  78 N10       29.95R
SOUTHWEST INTL CLEAR     63  57  81 N9        29.95R
NAPLES         CLEAR     66  58  75 N10       29.93R
MARATHON       CLEAR     73  66  78 N14G23    29.88R
KEY WEST NAS   PTCLDY    75  66  73 N16       29.89R
KEY WEST INTL  CLEAR     75  68  78 N13G22    29.90R

STATION/POSITION SKY/WX   TEMP    WIND        PRES    WAVE   SWELL
                          AIR SEA DIR/SP/G            HT/PER HT/PER
                          (F)     (DEG/KT/KT) (MB)    (FT/S) (FT/S)
VENICE                     65 78   20/ 10/ 11 1014.5R
NAPLES                     66 80  360/  8/ 11 1014.1S
26.0N   85.6W              76 81   30/ 10/ 16 1015.4R   4/ 6   3/ 6
DRY TORTUGAS               78      10/ 18/ 20 1012.4R
NW FL BAY                  74      30/ 16/ 19 1011.3S
SAND KEY                   76      20/ 21/ 24 1012.1R
SOMBRERO KEY               74      10/ 23/ 25 1012.1R
LONG KEY                   72 76   10/ 20/ 22 1011.8R
MOLASSES REEF              72 80  350/ 19/ 20 1010.9R

$$
FLZ067-068-071>074-168-172>174-251200-
SOUTHEAST FLORIDA

CITY           SKY/WX    TMP DP  RH WIND       PRES   REMARKS
W PALM BEACH   PTCLDY    66  62  87 NW8       29.88R
FT LAUDER-EXEC CLEAR     67  62  84 NW5       29.88R
FT LAUDERDALE  PTCLDY    69  63  81 N9        29.87R
POMPANO BEACH  CLEAR     68  62  81 NW8       29.88R
PEMBROKE PINES CLEAR     66  63  90 NW8       29.89R
OPA LOCKA      CLEAR     69  62  78 N9        29.88R
MIAMI          PTCLDY    70  62  76 NW6       29.88R
WEST KENDALL   CLEAR     70  62  76 N9        29.88R
HOMESTEAD      CLEAR     68  63  82 NW9       29.88R

STATION/POSITION SKY/WX   TEMP    WIND        PRES    WAVE   SWELL
                          AIR SEA DIR/SP/G            HT/PER HT/PER
                          (F)     (DEG/KT/KT) (MB)    (FT/S) (FT/S)
PORT EVERGLADES            70     320/  6/  9 1011.4
VIRGINIA KEY               71 78  350/  6/ 11 1011.8R
LAKE WORTH                 69 79  310/  8/ 11 1011.6R
SETTLEMENT POINT           77      10/ 17/ 18 1012.1R

$$





U.S. Dept. of Commerce
NOAA National Weather Service
1325 East West Highway
Silver Spring, MD 20910
E-mail: w-nws.webmaster@noaa.gov
Page last modified: May 16, 2007
NATIONAL WEATHER SERVICE: for Safety, for Work, for Fun - FOR LIFE